Preview of NWS' New Version of Forecast
This preview is not operational and should not be used for support decisions.

Regional Weather Roundup (RWR)

Issued by National Weather Service (NWS)

                            
000
ASUS44 KMEG 210400
RWRTN 
TENNESSEE HOURLY STATE WEATHER ROUNDUP
NATIONAL WEATHER SERVICE MEMPHIS TN
1100 PM CDT WED MAR 20 2019

TNZ002-004-019-021-049-052-054-088>092-210500-
WEST TENNESSEE
  
CITY           SKY/WX    TMP DP  RH WIND       PRES   REMARKS
MEMPHIS INTL   FAIR      44  43  96 W5        30.14S                  
NWS MEMPHIS      N/A     45 N/A N/A MISG        N/A                   
JACKSON        LGT RAIN  46  45  96 SW3       30.11F                  
DYERSBURG      CLOUDY    47  45  93 W8        30.11                   
$$

TNZ008-025-027-028-033-062-065-066-210500-
NORTH MIDDLE TENNESSEE
  
CITY           SKY/WX    TMP DP  RH WIND       PRES   REMARKS
NASHVILLE      CLOUDY    55  32  41 NW13      30.06R                  
CLARKSVILLE    CLOUDY    49  41  74 SW9       30.06F                  
SMYRNA         MOCLDY    54  34  46 NW6       30.06S                  
CROSSVILLE     FAIR      48  27  44 CALM      30.04S                  
$$

TNZ061-075-076-078-094-096-097-210500-
SOUTH MIDDLE TENNESSEE
  
CITY           SKY/WX    TMP DP  RH WIND       PRES   REMARKS
FAYETTEVILLE   CLOUDY    54  32  43 S6        30.03F                  
$$

TNZ017-018-042-046-047-210500-
NORTHEAST TENNESSEE
  
CITY           SKY/WX    TMP DP  RH WIND       PRES   REMARKS
TRI CITIES     FAIR      39  29  67 CALM      30.06F                  
$$

TNZ012-013-036-069-073-074-210500-
CENTRAL EAST TENNESSEE
  
CITY           SKY/WX    TMP DP  RH WIND       PRES   REMARKS
KNOXVILLE      CLOUDY    50  27  40 SE3       30.03F                  
OAK RIDGE      FAIR      47  31  53 CALM      30.05F                  
$$

TNZ083-085-099-210500-
SOUTHEAST TENNESSEE
  
CITY           SKY/WX    TMP DP  RH WIND       PRES   REMARKS
CHATTANOOGA    CLOUDY    54  29  38 CALM      30.06S                  
$$

SKY/WX REPORTED AS FAIR MEANS FEW OR NO CLOUDS BELOW
12 THOUSAND FEET.